owner,sensor,date,latitude,longitude,vertical_datum,direction_of_sea_water_velocity,sea_water_speed,upward_sea_water_velocity,qcFlag 
TABS,ioos:station:wmo:42047:1,2017-08-01T00:00:00Z,27.8966,-93.5973,2.0,112.9707072,20.47346087,-99999.0,'11111222,11111222,99999999' 
TABS,ioos:station:wmo:42047:1,2017-08-01T00:30:00Z,27.8966,-93.5973,2.0,122.1637934,19.16059498,-99999.0,'11111222,11111222,99999999' 
TABS,ioos:station:wmo:42047:1,2017-08-01T01:00:00Z,27.8966,-93.5973,2.0,135.2898133,22.35900266,-99999.0,'11111222,11111222,99999999' 
TABS,ioos:station:wmo:42047:1,2017-08-01T01:30:00Z,27.8966,-93.5973,2.0,133.5055647,13.01519112,-99999.0,'11111222,11111222,99999999' 
TABS,ioos:station:wmo:42047:1,2017-08-01T02:00:00Z,27.8966,-93.5973,2.0,118.4211428,36.72656259,-99999.0,'11111222,11111222,99999999' 
TABS,ioos:station:wmo:42047:1,2017-08-01T02:30:00Z,27.8966,-93.5973,2.0,121.7886507,37.28251199,-99999.0,'11111222,11111222,99999999' 
TABS,ioos:station:wmo:42047:1,2017-08-01T03:00:00Z,27.8966,-93.5973,2.0,122.6700278,29.60349304,-99999.0,'11111222,11111222,99999999' 
TABS,ioos:station:wmo:42047:1,2017-08-01T03:30:00Z,27.8966,-93.5973,2.0,129.5037554,18.23526528,-99999.0,'11111222,11111222,99999999' 
TABS,ioos:station:wmo:42047:1,2017-08-01T04:00:00Z,27.8966,-93.5973,2.0,128.1997693,18.8710837,-99999.0,'11111222,11111222,99999999' 
TABS,ioos:station:wmo:42047:1,2017-08-01T04:30:00Z,27.8966,-93.5973,2.0,124.4200323,20.0263027,-99999.0,'11111222,11111222,99999999' 
TABS,ioos:station:wmo:42047:1,2017-08-01T05:00:00Z,27.8966,-93.5973,2.0,112.9864652,14.5449132,-99999.0,'11111222,11111222,99999999' 
TABS,ioos:station:wmo:42047:1,2017-08-01T05:30:00Z,27.8966,-93.5973,2.0,86.72951972,9.114845034,-99999.0,'11133222,11111222,99999999' 
TABS,ioos:station:wmo:42047:1,2017-08-01T06:00:00Z,27.8966,-93.5973,2.0,34.43911923,2.546291421,-99999.0,'11133222,11111222,99999999' 
TABS,ioos:station:wmo:42047:1,2017-08-01T06:30:00Z,27.8966,-93.5973,2.0,0.496981064,3.460130055,-99999.0,'11133222,11111222,99999999' 
TABS,ioos:station:wmo:42047:1,2017-08-01T07:00:00Z,27.8966,-93.5973,2.0,13.71952364,8.770222346,-99999.0,'11133222,11111222,99999999' 
TABS,ioos:station:wmo:42047:1,2017-08-01T07:30:00Z,27.8966,-93.5973,2.0,17.54316022,13.20410921,-99999.0,'11111222,11111222,99999999' 
TABS,ioos:station:wmo:42047:1,2017-08-01T08:00:00Z,27.8966,-93.5973,2.0,19.55722726,11.94937655,-99999.0,'11111222,11111222,99999999' 
TABS,ioos:station:wmo:42047:1,2017-08-01T08:30:00Z,27.8966,-93.5973,2.0,21.91381693,15.16576737,-99999.0,'11111222,11111222,99999999' 
TABS,ioos:station:wmo:42047:1,2017-08-01T09:00:00Z,27.8966,-93.5973,2.0,23.67145913,18.7800852,-99999.0,'11111222,11111222,99999999' 
TABS,ioos:station:wmo:42047:1,2017-08-01T09:30:00Z,27.8966,-93.5973,2.0,25.49952035,21.8814739,-99999.0,'11111222,11111222,99999999' 
TABS,ioos:station:wmo:42047:1,2017-08-01T10:00:00Z,27.8966,-93.5973,2.0,28.98896519,21.14976359,-99999.0,'11111222,11111222,99999999' 
TABS,ioos:station:wmo:42047:1,2017-08-01T10:30:00Z,27.8966,-93.5973,2.0,5.240053591,23.98021059,-99999.0,'11111222,11111222,99999999' 
TABS,ioos:station:wmo:42047:1,2017-08-01T11:00:00Z,27.8966,-93.5973,2.0,0.000210459,20.84,-99999.0,'11111222,11111222,99999999' 
TABS,ioos:station:wmo:42047:1,2017-08-01T11:30:00Z,27.8966,-93.5973,2.0,8.959562415,33.71131116,-99999.0,'11111222,11111222,99999999' 
TABS,ioos:station:wmo:42047:1,2017-08-01T12:00:00Z,27.8966,-93.5973,2.0,20.90446776,32.73467275,-99999.0,'11111222,11111222,99999999' 
TABS,ioos:station:wmo:42047:1,2017-08-01T12:30:00Z,27.8966,-93.5973,2.0,24.95821056,43.53547749,-99999.0,'11111222,11111222,99999999' 
TABS,ioos:station:wmo:42047:1,2017-08-01T13:00:00Z,27.8966,-93.5973,2.0,33.93672764,45.76596334,-99999.0,'11111222,11111222,99999999' 
TABS,ioos:station:wmo:42047:1,2017-08-01T13:30:00Z,27.8966,-93.5973,2.0,33.96518476,48.54237324,-99999.0,'11111222,11111222,99999999' 
TABS,ioos:station:wmo:42047:1,2017-08-01T14:00:00Z,27.8966,-93.5973,2.0,32.98634719,40.18828809,-99999.0,'11111222,11111222,99999999' 
TABS,ioos:station:wmo:42047:1,2017-08-01T14:30:00Z,27.8966,-93.5973,2.0,32.93503768,42.92920335,-99999.0,'11111222,11111222,99999999' 
TABS,ioos:station:wmo:42047:1,2017-08-01T15:00:00Z,27.8966,-93.5973,2.0,41.88326784,41.74569798,-99999.0,'11111222,11111222,99999999' 
TABS,ioos:station:wmo:42047:1,2017-08-01T15:30:00Z,27.8966,-93.5973,2.0,45.06095629,46.60543423,-99999.0,'11111222,11111222,99999999' 
TABS,ioos:station:wmo:42047:1,2017-08-01T16:00:00Z,27.8966,-93.5973,2.0,45.83248651,34.07200023,-99999.0,'11111222,11111222,99999999' 
TABS,ioos:station:wmo:42047:1,2017-08-01T16:30:00Z,27.8966,-93.5973,2.0,52.23659807,46.42364591,-99999.0,'11111222,11111222,99999999' 
TABS,ioos:station:wmo:42047:1,2017-08-01T17:00:00Z,27.8966,-93.5973,2.0,53.31238031,44.65622577,-99999.0,'11111222,11111222,99999999' 
TABS,ioos:station:wmo:42047:1,2017-08-01T17:30:00Z,27.8966,-93.5973,2.0,57.74044149,38.21965986,-99999.0,'11111222,11111222,99999999' 
TABS,ioos:station:wmo:42047:1,2017-08-01T18:00:00Z,27.8966,-93.5973,2.0,60.34305732,42.86521434,-99999.0,'11111222,11111222,99999999' 
TABS,ioos:station:wmo:42047:1,2017-08-01T18:30:00Z,27.8966,-93.5973,2.0,59.93221069,36.08599867,-99999.0,'11111222,11111222,99999999' 
TABS,ioos:station:wmo:42047:1,2017-08-01T19:00:00Z,27.8966,-93.5973,2.0,61.8065703,35.09360768,-99999.0,'11111222,11111222,99999999' 
TABS,ioos:station:wmo:42047:1,2017-08-01T19:30:00Z,27.8966,-93.5973,2.0,69.84527467,40.77696531,-99999.0,'11111222,11111222,99999999' 
TABS,ioos:station:wmo:42047:1,2017-08-01T20:00:00Z,27.8966,-93.5973,2.0,83.30128584,39.17745525,-99999.0,'11111222,11111222,99999999' 
TABS,ioos:station:wmo:42047:1,2017-08-01T20:30:00Z,27.8966,-93.5973,2.0,79.77133063,26.91781009,-99999.0,'11111222,11111222,99999999' 
TABS,ioos:station:wmo:42047:1,2017-08-01T21:00:00Z,27.8966,-93.5973,2.0,67.61712496,22.32172932,-99999.0,'11111222,11111222,99999999' 
TABS,ioos:station:wmo:42047:1,2017-08-01T21:30:00Z,27.8966,-93.5973,2.0,84.8788957,26.88732787,-99999.0,'11111222,11111222,99999999' 
TABS,ioos:station:wmo:42047:1,2017-08-01T22:00:00Z,27.8966,-93.5973,2.0,89.97313847,21.33000234,-99999.0,'11111222,11111222,99999999' 
TABS,ioos:station:wmo:42047:1,2017-08-01T22:30:00Z,27.8966,-93.5973,2.0,90.76936708,22.34201423,-99999.0,'11111222,11111222,99999999' 
TABS,ioos:station:wmo:42047:1,2017-08-01T23:00:00Z,27.8966,-93.5973,2.0,92.02731796,22.61415486,-99999.0,'11111222,11111222,99999999' 
TABS,ioos:station:wmo:42047:1,2017-08-01T23:30:00Z,27.8966,-93.5973,2.0,102.4902546,29.03723299,-99999.0,'11111222,11111222,99999999' 
TABS,ioos:station:wmo:42047:1,2017-08-02T00:00:00Z,27.8966,-93.5973,2.0,104.5552792,27.5750068,-99999.0,'11111222,11111222,99999999' 
TABS,ioos:station:wmo:42047:1,2017-08-02T00:30:00Z,27.8966,-93.5973,2.0,117.6964607,8.606067627,-99999.0,'11133222,11111222,99999999' 
TABS,ioos:station:wmo:42047:1,2017-08-02T01:00:00Z,27.8966,-93.5973,2.0,134.5396987,7.04301072,-99999.0,'11133222,11111222,99999999' 
TABS,ioos:station:wmo:42047:1,2017-08-02T01:30:00Z,27.8966,-93.5973,2.0,126.232334,8.628534059,-99999.0,'11133222,11111222,99999999' 
TABS,ioos:station:wmo:42047:1,2017-08-02T02:00:00Z,27.8966,-93.5973,2.0,128.5248213,12.60325752,-99999.0,'11111222,11111222,99999999' 
TABS,ioos:station:wmo:42047:1,2017-08-02T02:30:00Z,27.8966,-93.5973,2.0,144.631042,9.467248808,-99999.0,'11133222,11111222,99999999' 
TABS,ioos:station:wmo:42047:1,2017-08-02T03:00:00Z,27.8966,-93.5973,2.0,163.904352,6.817228176,-99999.0,'11133222,11111222,99999999' 
TABS,ioos:station:wmo:42047:1,2017-08-02T03:30:00Z,27.8966,-93.5973,2.0,190.8062974,6.026881449,-99999.0,'11133222,11111222,99999999' 
TABS,ioos:station:wmo:42047:1,2017-08-02T04:00:00Z,27.8966,-93.5973,2.0,207.0786271,4.98663213,-99999.0,'11133222,11111222,99999999' 
TABS,ioos:station:wmo:42047:1,2017-08-02T04:30:00Z,27.8966,-93.5973,2.0,222.4337346,5.528046671,-99999.0,'11133222,11111222,99999999' 
TABS,ioos:station:wmo:42047:1,2017-08-02T05:00:00Z,27.8966,-93.5973,2.0,229.8162639,6.989685258,-99999.0,'11133222,11111222,99999999' 
TABS,ioos:station:wmo:42047:1,2017-08-02T05:30:00Z,27.8966,-93.5973,2.0,239.4824464,5.06107696,-99999.0,'11133222,11111222,99999999' 
TABS,ioos:station:wmo:42047:1,2017-08-02T06:00:00Z,27.8966,-93.5973,2.0,270.5539848,6.210289848,-99999.0,'11133222,11111222,99999999' 
TABS,ioos:station:wmo:42047:1,2017-08-02T06:30:00Z,27.8966,-93.5973,2.0,274.3207124,10.08866691,-99999.0,'11111222,11111222,99999999' 
TABS,ioos:station:wmo:42047:1,2017-08-02T07:00:00Z,27.8966,-93.5973,2.0,264.9808255,10.63075726,-99999.0,'11111222,11111222,99999999' 
TABS,ioos:station:wmo:42047:1,2017-08-02T07:30:00Z,27.8966,-93.5973,2.0,274.4529821,9.789545444,-99999.0,'11133222,11111222,99999999' 
TABS,ioos:station:wmo:42047:1,2017-08-02T08:00:00Z,27.8966,-93.5973,2.0,297.7502078,15.35612581,-99999.0,'11111222,11111222,99999999' 
TABS,ioos:station:wmo:42047:1,2017-08-02T08:30:00Z,27.8966,-93.5973,2.0,295.547305,12.08114647,-99999.0,'11111222,11111222,99999999' 
TABS,ioos:station:wmo:42047:1,2017-08-02T09:00:00Z,27.8966,-93.5973,2.0,303.7013086,14.58029492,-99999.0,'11111222,11111222,99999999' 
TABS,ioos:station:wmo:42047:1,2017-08-02T09:30:00Z,27.8966,-93.5973,2.0,310.2680886,17.14213522,-99999.0,'11111222,11111222,99999999' 
TABS,ioos:station:wmo:42047:1,2017-08-02T10:00:00Z,27.8966,-93.5973,2.0,344.0044156,14.0437495,-99999.0,'11111222,11111222,99999999' 
TABS,ioos:station:wmo:42047:1,2017-08-02T10:30:00Z,27.8966,-93.5973,2.0,346.3752858,16.55590831,-99999.0,'11111222,11111222,99999999' 
TABS,ioos:station:wmo:42047:1,2017-08-02T11:00:00Z,27.8966,-93.5973,2.0,6.804011387,14.60283877,-99999.0,'11111222,11111222,99999999' 
TABS,ioos:station:wmo:42047:1,2017-08-02T11:30:00Z,27.8966,-93.5973,2.0,354.8204286,17.72237287,-99999.0,'11111222,11111222,99999999' 
TABS,ioos:station:wmo:42047:1,2017-08-02T12:00:00Z,27.8966,-93.5973,2.0,3.723469467,21.40517928,-99999.0,'11111222,11111222,99999999' 
TABS,ioos:station:wmo:42047:1,2017-08-02T12:30:00Z,27.8966,-93.5973,2.0,30.49458921,25.12538557,-99999.0,'11111222,11111222,99999999' 
TABS,ioos:station:wmo:42047:1,2017-08-02T13:00:00Z,27.8966,-93.5973,2.0,45.21261307,24.78426315,-99999.0,'11111222,11111222,99999999' 
TABS,ioos:station:wmo:42047:1,2017-08-02T13:30:00Z,27.8966,-93.5973,2.0,51.69788764,27.52459991,-99999.0,'11111222,11111222,99999999' 
TABS,ioos:station:wmo:42047:1,2017-08-02T14:00:00Z,27.8966,-93.5973,2.0,51.95618661,31.23655711,-99999.0,'11111222,11111222,99999999' 
TABS,ioos:station:wmo:42047:1,2017-08-02T14:30:00Z,27.8966,-93.5973,2.0,53.0748483,31.06001449,-99999.0,'11111222,11111222,99999999' 
TABS,ioos:station:wmo:42047:1,2017-08-02T15:00:00Z,27.8966,-93.5973,2.0,53.76840561,43.09267339,-99999.0,'11111222,11111222,99999999' 
TABS,ioos:station:wmo:42047:1,2017-08-02T15:30:00Z,27.8966,-93.5973,2.0,45.93238138,36.50568449,-99999.0,'11111222,11111222,99999999' 
TABS,ioos:station:wmo:42047:1,2017-08-02T16:00:00Z,27.8966,-93.5973,2.0,47.5676214,48.30145546,-99999.0,'11111222,11111222,99999999' 
TABS,ioos:station:wmo:42047:1,2017-08-02T16:30:00Z,27.8966,-93.5973,2.0,52.21505091,43.57755844,-99999.0,'11111222,11111222,99999999' 
TABS,ioos:station:wmo:42047:1,2017-08-02T17:00:00Z,27.8966,-93.5973,2.0,57.88571953,43.47165168,-99999.0,'11111222,11111222,99999999' 
TABS,ioos:station:wmo:42047:1,2017-08-02T17:30:00Z,27.8966,-93.5973,2.0,54.79335791,43.06814368,-99999.0,'11111222,11111222,99999999' 
TABS,ioos:station:wmo:42047:1,2017-08-02T18:00:00Z,27.8966,-93.5973,2.0,61.59963736,33.09289501,-99999.0,'11111222,11111222,99999999' 
TABS,ioos:station:wmo:42047:1,2017-08-02T18:30:00Z,27.8966,-93.5973,2.0,71.41391879,41.94775918,-99999.0,'11111222,11111222,99999999' 
TABS,ioos:station:wmo:42047:1,2017-08-02T19:00:00Z,27.8966,-93.5973,2.0,70.4655656,40.04497097,-99999.0,'11111222,11111222,99999999' 
TABS,ioos:station:wmo:42047:1,2017-08-02T19:30:00Z,27.8966,-93.5973,2.0,79.8980694,41.67609627,-99999.0,'11111222,11111222,99999999' 
TABS,ioos:station:wmo:42047:1,2017-08-02T20:00:00Z,27.8966,-93.5973,2.0,91.55240851,50.93869649,-99999.0,'11111222,11111222,99999999' 
TABS,ioos:station:wmo:42047:1,2017-08-02T20:30:00Z,27.8966,-93.5973,2.0,92.65607124,42.29543829,-99999.0,'11111222,11111222,99999999' 
TABS,ioos:station:wmo:42047:1,2017-08-02T21:00:00Z,27.8966,-93.5973,2.0,103.342676,56.5052387,-99999.0,'11111222,11111222,99999999' 
TABS,ioos:station:wmo:42047:1,2017-08-02T21:30:00Z,27.8966,-93.5973,2.0,108.6312999,52.58582414,-99999.0,'11111222,11111222,99999999' 
TABS,ioos:station:wmo:42047:1,2017-08-02T22:00:00Z,27.8966,-93.5973,2.0,114.5958229,33.70850634,-99999.0,'11111222,11111222,99999999' 
TABS,ioos:station:wmo:42047:1,2017-08-02T22:30:00Z,27.8966,-93.5973,2.0,119.0897393,44.26344767,-99999.0,'11111222,11111222,99999999' 
TABS,ioos:station:wmo:42047:1,2017-08-02T23:00:00Z,27.8966,-93.5973,2.0,128.4936145,26.39660016,-99999.0,'11111222,11111222,99999999' 
TABS,ioos:station:wmo:42047:1,2017-08-02T23:30:00Z,27.8966,-93.5973,2.0,137.0419093,17.06625325,-99999.0,'11111222,11111222,99999999' 
TABS,ioos:station:wmo:42047:1,2017-08-03T00:00:00Z,27.8966,-93.5973,2.0,144.4380602,16.55831513,-99999.0,'11111222,11111222,99999999' 
TABS,ioos:station:wmo:42047:1,2017-08-03T00:30:00Z,27.8966,-93.5973,2.0,152.1092826,35.571944,-99999.0,'11111222,11111222,99999999' 
TABS,ioos:station:wmo:42047:1,2017-08-03T01:00:00Z,27.8966,-93.5973,2.0,159.4522894,31.56833857,-99999.0,'11111222,11111222,99999999' 
TABS,ioos:station:wmo:42047:1,2017-08-03T01:30:00Z,27.8966,-93.5973,2.0,159.4912921,18.3532286,-99999.0,'11111222,11111222,99999999' 
TABS,ioos:station:wmo:42047:1,2017-08-03T02:00:00Z,27.8966,-93.5973,2.0,169.6733719,30.84969044,-99999.0,'11111222,11111222,99999999' 
TABS,ioos:station:wmo:42047:1,2017-08-03T02:30:00Z,27.8966,-93.5973,2.0,185.9466387,27.50803701,-99999.0,'11111222,11111222,99999999' 
TABS,ioos:station:wmo:42047:1,2017-08-03T03:00:00Z,27.8966,-93.5973,2.0,215.1941175,39.1947573,-99999.0,'11111222,11111222,99999999' 
TABS,ioos:station:wmo:42047:1,2017-08-03T03:30:00Z,27.8966,-93.5973,2.0,222.6003963,31.58586551,-99999.0,'11111222,11111222,99999999' 
TABS,ioos:station:wmo:42047:1,2017-08-03T04:00:00Z,27.8966,-93.5973,2.0,255.6899804,44.22202392,-99999.0,'11111222,11111222,99999999' 
TABS,ioos:station:wmo:42047:1,2017-08-03T04:30:00Z,27.8966,-93.5973,2.0,271.1105495,39.2273629,-99999.0,'11111222,11111222,99999999' 
TABS,ioos:station:wmo:42047:1,2017-08-03T05:00:00Z,27.8966,-93.5973,2.0,277.6156099,36.8247797,-99999.0,'11111222,11111222,99999999' 
TABS,ioos:station:wmo:42047:1,2017-08-03T05:30:00Z,27.8966,-93.5973,2.0,278.4201744,40.84018119,-99999.0,'11111222,11111222,99999999' 
TABS,ioos:station:wmo:42047:1,2017-08-03T06:00:00Z,27.8966,-93.5973,2.0,286.070879,33.34298277,-99999.0,'11111222,11111222,99999999' 
TABS,ioos:station:wmo:42047:1,2017-08-03T06:30:00Z,27.8966,-93.5973,2.0,292.5050592,32.52698879,-99999.0,'11111222,11111222,99999999' 
TABS,ioos:station:wmo:42047:1,2017-08-03T07:00:00Z,27.8966,-93.5973,2.0,296.6687073,29.76658529,-99999.0,'11111222,11111222,99999999' 
TABS,ioos:station:wmo:42047:1,2017-08-03T07:30:00Z,27.8966,-93.5973,2.0,308.9626473,25.14276437,-99999.0,'11111222,11111222,99999999' 
TABS,ioos:station:wmo:42047:1,2017-08-03T08:00:00Z,27.8966,-93.5973,2.0,325.5656642,24.7583602,-99999.0,'11111222,11111222,99999999' 
TABS,ioos:station:wmo:42047:1,2017-08-03T08:30:00Z,27.8966,-93.5973,2.0,344.3529561,30.62495224,-99999.0,'11111222,11111222,99999999' 
TABS,ioos:station:wmo:42047:1,2017-08-03T09:00:00Z,27.8966,-93.5973,2.0,353.073196,28.35699032,-99999.0,'11111222,11111222,99999999' 
TABS,ioos:station:wmo:42047:1,2017-08-03T09:30:00Z,27.8966,-93.5973,2.0,4.409893282,31.99471206,-99999.0,'11111222,11111222,99999999' 
TABS,ioos:station:wmo:42047:1,2017-08-03T10:00:00Z,27.8966,-93.5973,2.0,8.577093083,35.00143568,-99999.0,'11111222,11111222,99999999' 
TABS,ioos:station:wmo:42047:1,2017-08-03T10:30:00Z,27.8966,-93.5973,2.0,17.57799294,34.66876692,-99999.0,'11111222,11111222,99999999' 
TABS,ioos:station:wmo:42047:1,2017-08-03T11:00:00Z,27.8966,-93.5973,2.0,22.66623799,34.33154963,-99999.0,'11111222,11111222,99999999' 
TABS,ioos:station:wmo:42047:1,2017-08-03T11:30:00Z,27.8966,-93.5973,2.0,25.90821476,37.83228515,-99999.0,'11111222,11111222,99999999' 
TABS,ioos:station:wmo:42047:1,2017-08-03T12:00:00Z,27.8966,-93.5973,2.0,28.05181277,37.23412011,-99999.0,'11111222,11111222,99999999' 
TABS,ioos:station:wmo:42047:1,2017-08-03T12:30:00Z,27.8966,-93.5973,2.0,37.24931358,36.85880763,-99999.0,'11111222,11111222,99999999' 
TABS,ioos:station:wmo:42047:1,2017-08-03T13:00:00Z,27.8966,-93.5973,2.0,34.35484054,32.03886546,-99999.0,'11111222,11111222,99999999' 
TABS,ioos:station:wmo:42047:1,2017-08-03T13:30:00Z,27.8966,-93.5973,2.0,51.51311917,42.45290685,-99999.0,'11111222,11111222,99999999' 
TABS,ioos:station:wmo:42047:1,2017-08-03T14:00:00Z,27.8966,-93.5973,2.0,66.82500828,51.12547701,-99999.0,'11111222,11111222,99999999' 
TABS,ioos:station:wmo:42047:1,2017-08-03T14:30:00Z,27.8966,-93.5973,2.0,66.42297096,40.15175712,-99999.0,'11111222,11111222,99999999' 
TABS,ioos:station:wmo:42047:1,2017-08-03T15:00:00Z,27.8966,-93.5973,2.0,67.32480501,44.5646362,-99999.0,'11111222,11111222,99999999' 
TABS,ioos:station:wmo:42047:1,2017-08-03T15:30:00Z,27.8966,-93.5973,2.0,82.58128521,72.10357897,-99999.0,'11111222,11111222,99999999' 
TABS,ioos:station:wmo:42047:1,2017-08-03T16:00:00Z,27.8966,-93.5973,2.0,86.31483585,74.21345228,-99999.0,'11111222,11111222,99999999' 
TABS,ioos:station:wmo:42047:1,2017-08-03T16:30:00Z,27.8966,-93.5973,2.0,88.6030493,61.52828699,-99999.0,'11111222,11111222,99999999' 
TABS,ioos:station:wmo:42047:1,2017-08-03T17:00:00Z,27.8966,-93.5973,2.0,91.7743219,62.00973149,-99999.0,'11111222,11111222,99999999' 
TABS,ioos:station:wmo:42047:1,2017-08-03T17:30:00Z,27.8966,-93.5973,2.0,88.62459386,55.82608441,-99999.0,'11111222,11111222,99999999' 
TABS,ioos:station:wmo:42047:1,2017-08-03T18:00:00Z,27.8966,-93.5973,2.0,87.13272913,46.97881331,-99999.0,'11111222,11111222,99999999' 
TABS,ioos:station:wmo:42047:1,2017-08-03T18:30:00Z,27.8966,-93.5973,2.0,101.5538265,69.10018524,-99999.0,'11111222,11111222,99999999' 
TABS,ioos:station:wmo:42047:1,2017-08-03T19:00:00Z,27.8966,-93.5973,2.0,100.2046553,63.95164189,-99999.0,'11111222,11111222,99999999' 
TABS,ioos:station:wmo:42047:1,2017-08-03T19:30:00Z,27.8966,-93.5973,2.0,100.8044412,59.80009783,-99999.0,'11111222,11111222,99999999' 
TABS,ioos:station:wmo:42047:1,2017-08-03T20:00:00Z,27.8966,-93.5973,2.0,101.1282658,51.34542336,-99999.0,'11111222,11111222,99999999' 
TABS,ioos:station:wmo:42047:1,2017-08-03T20:30:00Z,27.8966,-93.5973,2.0,108.6494951,50.66004343,-99999.0,'11111222,11111222,99999999' 
TABS,ioos:station:wmo:42047:1,2017-08-03T21:00:00Z,27.8966,-93.5973,2.0,113.3434715,45.67902801,-99999.0,'11111222,11111222,99999999' 
TABS,ioos:station:wmo:42047:1,2017-08-03T21:30:00Z,27.8966,-93.5973,2.0,123.0787262,38.47619524,-99999.0,'11111222,11111222,99999999' 
TABS,ioos:station:wmo:42047:1,2017-08-03T22:00:00Z,27.8966,-93.5973,2.0,128.5554514,38.61871179,-99999.0,'11111222,11111222,99999999' 
TABS,ioos:station:wmo:42047:1,2017-08-03T22:30:00Z,27.8966,-93.5973,2.0,140.3901068,33.34611971,-99999.0,'11111222,11111222,99999999' 
TABS,ioos:station:wmo:42047:1,2017-08-03T23:00:00Z,27.8966,-93.5973,2.0,146.8847503,27.63932886,-99999.0,'11111222,11111222,99999999' 
TABS,ioos:station:wmo:42047:1,2017-08-03T23:30:00Z,27.8966,-93.5973,2.0,156.4705738,27.52885214,-99999.0,'11111222,11111222,99999999' 
TABS,ioos:station:wmo:42047:1,2017-08-04T00:00:00Z,27.8966,-93.5973,2.0,169.074668,29.49457069,-99999.0,'11111222,11111222,99999999' 
TABS,ioos:station:wmo:42047:1,2017-08-04T00:30:00Z,27.8966,-93.5973,2.0,217.3516593,55.14995195,-99999.0,'11111222,11111222,99999999' 
TABS,ioos:station:wmo:42047:1,2017-08-04T01:00:00Z,27.8966,-93.5973,2.0,220.777464,55.99218606,-99999.0,'11111222,11111222,99999999' 
TABS,ioos:station:wmo:42047:1,2017-08-04T01:30:00Z,27.8966,-93.5973,2.0,224.6707646,57.89178612,-99999.0,'11111222,11111222,99999999' 
TABS,ioos:station:wmo:42047:1,2017-08-04T02:00:00Z,27.8966,-93.5973,2.0,232.6072036,66.44476353,-99999.0,'11111222,11111222,99999999' 
TABS,ioos:station:wmo:42047:1,2017-08-04T02:30:00Z,27.8966,-93.5973,2.0,245.3307348,68.93099811,-99999.0,'11111222,11111222,99999999' 
TABS,ioos:station:wmo:42047:1,2017-08-04T03:00:00Z,27.8966,-93.5973,2.0,249.7863053,73.5710405,-99999.0,'11111222,11111222,99999999' 
TABS,ioos:station:wmo:42047:1,2017-08-04T03:30:00Z,27.8966,-93.5973,2.0,255.1779338,74.66433151,-99999.0,'11111222,11111222,99999999' 
TABS,ioos:station:wmo:42047:1,2017-08-04T04:00:00Z,27.8966,-93.5973,2.0,256.9271187,72.24217951,-99999.0,'11111222,11111222,99999999' 
TABS,ioos:station:wmo:42047:1,2017-08-04T04:30:00Z,27.8966,-93.5973,2.0,262.0860935,77.0638761,-99999.0,'11111222,11111222,99999999' 
TABS,ioos:station:wmo:42047:1,2017-08-04T05:00:00Z,27.8966,-93.5973,2.0,270.6570094,74.17487041,-99999.0,'11111222,11111222,99999999' 
TABS,ioos:station:wmo:42047:1,2017-08-04T05:30:00Z,27.8966,-93.5973,2.0,276.8055853,70.21467653,-99999.0,'11111222,11111222,99999999' 
TABS,ioos:station:wmo:42047:1,2017-08-04T06:00:00Z,27.8966,-93.5973,2.0,284.7748539,73.60354475,-99999.0,'11111222,11111222,99999999' 
TABS,ioos:station:wmo:42047:1,2017-08-04T06:30:00Z,27.8966,-93.5973,2.0,293.2370664,69.09477332,-99999.0,'11111222,11111222,99999999' 
TABS,ioos:station:wmo:42047:1,2017-08-04T07:00:00Z,27.8966,-93.5973,2.0,299.138383,68.04058936,-99999.0,'11111222,11111222,99999999' 
TABS,ioos:station:wmo:42047:1,2017-08-04T07:30:00Z,27.8966,-93.5973,2.0,312.9636657,71.03132056,-99999.0,'11111222,11111222,99999999' 
TABS,ioos:station:wmo:42047:1,2017-08-04T08:00:00Z,27.8966,-93.5973,2.0,319.857749,75.3228385,-99999.0,'11111222,11111222,99999999' 
TABS,ioos:station:wmo:42047:1,2017-08-04T08:30:00Z,27.8966,-93.5973,2.0,323.3638473,70.68458672,-99999.0,'11111222,11111222,99999999' 
TABS,ioos:station:wmo:42047:1,2017-08-04T09:00:00Z,27.8966,-93.5973,2.0,325.8467105,71.99689438,-99999.0,'11111222,11111222,99999999' 
TABS,ioos:station:wmo:42047:1,2017-08-04T09:30:00Z,27.8966,-93.5973,2.0,334.0729563,62.27835097,-99999.0,'11111222,11111222,99999999' 
TABS,ioos:station:wmo:42047:1,2017-08-04T10:00:00Z,27.8966,-93.5973,2.0,355.8033214,47.68787791,-99999.0,'11111222,11111222,99999999' 
TABS,ioos:station:wmo:42047:1,2017-08-04T10:30:00Z,27.8966,-93.5973,2.0,43.35708079,39.4586391,-99999.0,'11111222,11111222,99999999' 
TABS,ioos:station:wmo:42047:1,2017-08-04T11:00:00Z,27.8966,-93.5973,2.0,60.23736506,59.80955191,-99999.0,'11111222,11111222,99999999' 
TABS,ioos:station:wmo:42047:1,2017-08-04T11:30:00Z,27.8966,-93.5973,2.0,63.77373004,59.76219708,-99999.0,'11111222,11111222,99999999' 
TABS,ioos:station:wmo:42047:1,2017-08-04T12:00:00Z,27.8966,-93.5973,2.0,69.1143566,64.48722819,-99999.0,'11111222,11111222,99999999' 
TABS,ioos:station:wmo:42047:1,2017-08-04T12:30:00Z,27.8966,-93.5973,2.0,73.25032771,67.42046054,-99999.0,'11111222,11111222,99999999' 
TABS,ioos:station:wmo:42047:1,2017-08-04T13:00:00Z,27.8966,-93.5973,2.0,73.00125002,66.87155599,-99999.0,'11111222,11111222,99999999' 
TABS,ioos:station:wmo:42047:1,2017-08-04T13:30:00Z,27.8966,-93.5973,2.0,76.53401831,68.23592675,-99999.0,'11111222,11111222,99999999' 
TABS,ioos:station:wmo:42047:1,2017-08-04T14:00:00Z,27.8966,-93.5973,2.0,77.7478629,71.4371171,-99999.0,'11111222,11111222,99999999' 
TABS,ioos:station:wmo:42047:1,2017-08-04T14:30:00Z,27.8966,-93.5973,2.0,77.60420308,73.37041706,-99999.0,'11111222,11111222,99999999' 
TABS,ioos:station:wmo:42047:1,2017-08-04T15:00:00Z,27.8966,-93.5973,2.0,85.50089351,84.90162071,-99999.0,'11111222,11111222,99999999' 
TABS,ioos:station:wmo:42047:1,2017-08-04T15:30:00Z,27.8966,-93.5973,2.0,89.9399067,85.8100472,-99999.0,'11111222,11111222,99999999' 
TABS,ioos:station:wmo:42047:1,2017-08-04T16:00:00Z,27.8966,-93.5973,2.0,93.29928228,81.14449458,-99999.0,'11111222,11111222,99999999' 